TimeAKST,TemperatureF,Dew PointF,Humidity,Sea Level PressureIn,VisibilityMPH,Wind Direction,Wind SpeedMPH,Gust SpeedMPH,PrecipitationIn,Events,Conditions,WindDirDegrees,DateUTC
12:53 AM,37.9,28.0,68,29.24,10.0,ESE,24.2,43.7,N/A,,Overcast,110,2013-03-08 09:53:00
1:53 AM,39.0,28.0,65,29.26,10.0,ESE,35.7,49.5,N/A,,Overcast,110,2013-03-08 10:53:00
3:53 AM,37.9,28.9,70,29.30,10.0,East,27.6,38.0,N/A,,Overcast,100,2013-03-08 12:53:00
4:53 AM,37.0,28.9,73,29.30,10.0,East,27.6,39.1,N/A,,Overcast,100,2013-03-08 13:53:00
5:53 AM,37.0,28.9,73,29.30,10.0,ESE,27.6,38.0,N/A,,Mostly Cloudy,110,2013-03-08 14:53:00
6:53 AM,37.9,28.0,68,29.32,10.0,ESE,26.5,39.1,N/A,,Scattered Clouds,110,2013-03-08 15:53:00
7:53 AM,37.0,28.0,70,29.34,10.0,ESE,24.2,32.2,N/A,,Overcast,110,2013-03-08 16:53:00
8:53 AM,37.0,28.9,73,29.36,10.0,ESE,23.0,39.1,0.00,,Mostly Cloudy,110,2013-03-08 17:53:00
9:53 AM,37.9,28.0,68,29.37,10.0,ESE,25.3,34.5,N/A,,Partly Cloudy,110,2013-03-08 18:53:00
10:53 AM,37.9,28.9,70,29.39,10.0,ESE,26.5,38.0,0.00,,Partly Cloudy,120,2013-03-08 19:53:00
11:53 AM,37.9,28.0,68,29.40,10.0,ESE,23.0,40.3,N/A,,Scattered Clouds,110,2013-03-08 20:53:00
12:53 PM,37.0,30.0,76,29.42,10.0,East,23.0,32.2,N/A,,Mostly Cloudy,100,2013-03-08 21:53:00
1:53 PM,37.0,30.0,76,29.43,10.0,East,24.2,32.2,N/A,,Mostly Cloudy,100,2013-03-08 22:53:00
2:53 PM,35.1,32.0,89,29.43,10.0,East,20.7,27.6,N/A,,Overcast,90,2013-03-08 23:53:00
3:53 PM,37.0,32.0,82,29.44,10.0,East,18.4,25.3,N/A,,Overcast,100,2013-03-09 00:53:00
4:38 PM,35.6,32.0,87,29.45,10.0,East,16.1,24.2,N/A,,Overcast,90,2013-03-09 01:38:00
4:53 PM,35.1,32.0,89,29.46,10.0,East,17.3,-,N/A,,Overcast,90,2013-03-09 01:53:00
5:53 PM,35.1,32.0,89,29.49,9.0,East,12.7,-,0.00,Rain,Light Rain,90,2013-03-09 02:53:00
6:47 PM,35.6,32.0,87,29.49,10.0,East,16.1,24.2,0.00,,Overcast,100,2013-03-09 03:47:00
6:53 PM,35.1,32.0,89,29.50,10.0,East,13.8,-,0.00,,Overcast,90,2013-03-09 03:53:00
7:53 PM,35.1,32.0,89,29.53,10.0,East,11.5,23.0,N/A,,Overcast,80,2013-03-09 04:53:00
8:53 PM,34.0,33.1,96,29.55,10.0,East,10.4,-,N/A,,Overcast,80,2013-03-09 05:53:00
9:53 PM,35.1,33.1,92,29.57,10.0,East,12.7,-,N/A,,Overcast,90,2013-03-09 06:53:00
10:53 PM,35.1,33.1,92,29.60,10.0,East,11.5,-,N/A,,Overcast,90,2013-03-09 07:53:00
11:53 PM,35.1,32.0,89,29.63,10.0,East,6.9,-,N/A,,Overcast,80,2013-03-09 08:53:00